DELTA 1 DEB, 12538

Orbit data source: Space-Track

DELTA 1 DEB, 12538 is space debris in SSO originally from a launch on Thu, 29 Jul 1976 UTC launched from the Air Force Western Test Range (AFWTR). Debris objects in space refer to the collection of defunct objects orbiting the Earth. Examples of debris include non-operational satellites, rocket bodies, and fragments generated from explosions, collisions, or faulty payload assembly.

Loading next visibility...
Identifier
12538, 1976-077DT
Orbit
SSO
Country
Flag of USUS
Related business
Manufacturer
Unknown
Mission
Spacecraft
Bus & Motor
Unknown
Mass
Unknown
Launch date (UTC)
1976-07-29 (50 years ago)
Launch vehicle
Unknown
Launch site
Air Force Western Test Range (AFWTR)
Object type
Payload
Rocket body
Debris
Shape & HBR
Unknown shape, 0.2 m
Radar Cross Section
Medium (>0.1 m² and <1 m²)

Expand to show TLE details & history
Last TLE update: 3 days ago

TLE from 3 days ago
0 DELTA 1 DEB
1 12538U 76077DT  26171.24308471  .00000024  00000-0  75158-3 0  9997
2 12538 102.7778 266.5661 0197504 258.9644 123.8924 12.05750597 32802
Epoch: 2026-06-20T05:50Z
TLE epoch observation values (Epoch: 2026-06-20T05:50:02.518Z)
Latitude
24.08214°
Longitude
-95.1948°
Altitude
1,748.348 km
Speed
6.967 km/s
True Right ascension
17h 23m 06s
True Declination
23° 58' 12"
Sunlit
Object was in full shadow at epoch
Visualization orbit readout
Latitude
Unknown
Longitude
Unknown
Altitude
Unknown
Speed
Unknown
Apparent Right ascension
Unknown
Apparent Declination
Unknown
Sunlit
N/A
Visualization observer readout
Local Sidereal Time
13:18:38
Azimuth
Unknown
Elevation
Unknown
Doppler factor
Unknown
Orbital elements
Apogee altitude
1,811.497 km
Perigee altitude
1,494.265 km
Semi-major axis
8,031.018 km
Eccentricity
0.01975
Inclination
102.7778°
RAAN
266.5661°
Arg. of periapsis
258.9644°
True anomaly
125.74523°
Mean anomaly
123.8924°
Eccentric anomaly
124.82138°
Mean motion
3.01569 °/min
Orbital period
119.38 mins
BSTAR
0.00075158
Loading maneuver chart data...
Computing Atmospheric mass density...
Loading historical data...
Loading historical data...
Loading historical data...
Loading historical data...
Loading historical data...
Loading historical data...
Loading historical data...

Documentation

Showing up to 5 results
|